ONEWEB-0092 (45437 NORAD) Tracking and Keplerian Element Data

This shows tracking and keplerian element data for the satellite.

Feedback or suggestion? Click here.




ElementValue
Catalog45437
NameONEWEB-0092
Epoch Orbit3217
Epoch Day297.91667824
Epoch Year2020
RAAN71.7856
Inclination87.7939
Eccentricity0.0019479
Argument of Perigee241.0726
Mean Anonmoly117.164
Mean Motion13.9698753
Decay Rate-0.00018636
L11 45437U 20020P 20297.91667824 -.00018636 00000-0 -13406-1 0 9991
L22 45437 87.7939 71.7856 0019479 241.0726 117.1640 13.96987530 32178

Live tracking and technical data element details for ONEWEB-0092 (NORAD 45437). ONEWEB-0092 can be tracked NOW for your location showing map with azimuth and elevation plus other details from your city location.

Track the satellite on the map from your city or location and see movement details for azimuth, elevation, latitude, longitude, range, height, and movement on the map or in text.







IsCatalogInMostPopularTable: catalog: 45437, numindb: 43
Update: records affected: 1



GetName: 45437 ONEWEB-0092

Hit Count: updated at: Sun, 25 Oct 2020 00:04:29 GMT